This is the latest recevied weather packets stored in our database for station/object N7CW. If no packets are shown the sender has not sent any weather packets the latest 10 day(s).
| Time | Temp. | Humidity | Pressure | Rain* | Wind** | Luminosity | Snow |
|---|---|---|---|---|---|---|---|
| 1777591386 | 20° C | 20% | 1011.8 hPa | 0 mm | - | 175 W/m² | - |
| 1777591082 | 20° C | 21% | 1011.8 hPa | 0 mm | - | 185 W/m² | - |
| 1777590778 | 20° C | 20% | 1011.9 hPa | 0 mm | - | 194 W/m² | - |
| 1777590474 | 20° C | 21% | 1011.6 hPa | 0 mm | - | 202 W/m² | - |
| 1777590172 | 20° C | 20% | 1011.9 hPa | 0 mm | - | 220 W/m² | - |
| 1777589867 | 20° C | 21% | 1011.9 hPa | 0 mm | - | 234 W/m² | - |
| 1777589563 | 20° C | 20% | 1012 hPa | 0 mm | - | 216 W/m² | - |
| 1777589261 | 20.56° C | 20% | 1012 hPa | 0 mm | - | 235 W/m² | - |
| 1777588959 | 20.56° C | 20% | 1012 hPa | 0 mm | - | 229 W/m² | - |
| 1777588654 | 20.56° C | 20% | 1012.4 hPa | 0 mm | - | 249 W/m² | - |
| 1777588350 | 20.56° C | 20% | 1012.4 hPa | 0 mm | - | 238 W/m² | - |
| 1777588046 | 20.56° C | 19% | 1012.2 hPa | 0 mm | - | 247 W/m² | - |
| 1777587742 | 20.56° C | 20% | 1012.2 hPa | 0 mm | - | 312 W/m² | - |
| 1777587435 | 21.11° C | 20% | 1012.4 hPa | 0 mm | - | 255 W/m² | - |
| 1777587133 | 20.56° C | 20% | 1012.4 hPa | 0 mm | - | 565 W/m² | - |
| 1777586828 | 21.67° C | 19% | 1012.5 hPa | 0 mm | - | 471 W/m² | - |
| 1777586518 | 21.11° C | 20% | 1012.4 hPa | 0 mm | - | 810 W/m² | - |
| 1777586214 | 21.11° C | 19% | 1012.5 hPa | 0 mm | - | 291 W/m² | - |
| 1777585912 | 22.22° C | 19% | 1012.5 hPa | 0 mm | - | 382 W/m² | - |
| 1777585612 | 21.67° C | 19% | 1012.7 hPa | 0 mm | - | 776 W/m² | - |
| 1777585307 | 20° C | 19% | 1013.2 hPa | 0 mm | - | 772 W/m² | - |
| 1777585002 | 21.11° C | 19% | 1012.9 hPa | 0 mm | - | 337 W/m² | - |
| 1777584700 | 20.56° C | 19% | 1012.9 hPa | 0 mm | - | 650 W/m² | - |
| 1777584397 | 21.11° C | 19% | 1012.9 hPa | 0 mm | - | 384 W/m² | - |
| 1777584093 | 21.11° C | 19% | 1013.1 hPa | 0 mm | - | 860 W/m² | - |
* Rain latest hour (hover to see other rain measurements)
** Current wind speed in m/s (hover to see current wind gust speed)